| time (UTC) | temp F | wind direction | speed MPH | gust MPH | rain 1hr in | rain 24hr in | rain mn in | humidity % | barometer mb |
| 20260508060058 | 44 | 30 | 0.0 | 0.0 | 0.00 | 0.00 | 0.00 | 59 | 1005.9 |
| 20260508054555 | 44 | 334 | 0.0 | 0.0 | 0.00 | 0.00 | 0.00 | 63 | 1005.9 |
| 20260508053051 | 42 | 293 | 0.0 | 0.0 | 0.00 | 0.00 | 0.00 | 74 | 1006.3 |
| 20260508051546 | 43 | 13 | 0.0 | 0.0 | 0.00 | 0.00 | 0.00 | 65 | 1006.4 |
| 20260508050044 | 42 | 60 | 0.0 | 0.0 | 0.00 | 0.00 | 0.00 | 70 | 1006.4 |
| 20260508044541 | 42 | 60 | 0.0 | 0.0 | 0.00 | 0.26 | 0.00 | 73 | 1006.5 |
| 20260508043044 | 42 | 60 | 0.0 | 0.0 | 0.00 | 0.26 | 0.00 | 67 | 1006.7 |
| 20260508041536 | 42 | 57 | 0.0 | 0.0 | 0.00 | 0.26 | 0.00 | 71 | 1006.7 |
| 20260508040032 | 43 | 57 | 0.0 | 0.0 | 0.00 | 0.26 | 0.00 | 66 | 1006.7 |
| 20260508034528 | 44 | 57 | 0.0 | 0.0 | 0.00 | 0.26 | 0.00 | 67 | 1006.6 |
| 20260508033024 | 44 | 57 | 0.0 | 0.0 | 0.00 | 0.26 | 0.00 | 67 | 1006.6 |
| 20260508031522 | 45 | 57 | 0.0 | 0.0 | 0.00 | 0.26 | 0.00 | 67 | 1006.8 |
| 20260508030015 | 46 | 51 | 0.0 | 0.0 | 0.00 | 0.26 | 0.00 | 62 | 1006.7 |
| 20260508024511 | 48 | 51 | 0.0 | 0.0 | 0.00 | 0.27 | 0.00 | 54 | 1006.6 |
| 20260508023007 | 49 | 51 | 0.0 | 0.0 | 0.00 | 0.27 | 0.00 | 52 | 1006.4 |
| 20260508021502 | 50 | 1 | 0.0 | 0.0 | 0.00 | 0.27 | 0.00 | 54 | 1006.1 |
| 20260508020058 | 51 | 340 | 0.0 | 0.0 | 0.00 | 0.27 | 0.00 | 52 | 1006.2 |
| 20260508014555 | 51 | 56 | 0.0 | 0.0 | 0.00 | 0.28 | 0.00 | 49 | 1006.1 |
| 20260508013052 | 52 | 349 | 0.0 | 0.0 | 0.00 | 0.28 | 0.00 | 48 | 1005.8 |
| 20260508011551 | 53 | 338 | 0.0 | 0.0 | 0.00 | 0.28 | 0.00 | 45 | 1005.8 |
| 20260508010050 | 53 | 50 | 0.0 | 0.0 | 0.00 | 0.28 | 0.00 | 45 | 1005.6 |
| 20260508004546 | 54 | 335 | 0.0 | 0.0 | 0.00 | 0.30 | 0.00 | 44 | 1005.2 |
| 20260508003041 | 54 | 10 | 0.0 | 0.0 | 0.00 | 0.30 | 0.00 | 44 | 1004.9 |
| 20260508001539 | 55 | 330 | 0.0 | 0.0 | 0.00 | 0.30 | 0.00 | 42 | 1004.6 |
| 20260508000032 | 56 | 337 | 0.0 | 0.0 | 0.00 | 0.30 | 0.00 | 40 | 1004.5 |
| 20260507234528 | 57 | 333 | 0.0 | 0.0 | 0.00 | 0.30 | 0.00 | 39 | 1004.5 |
| 20260507233034 | 58 | 2 | 0.0 | 0.0 | 0.00 | 0.30 | 0.00 | 38 | 1004.2 |
| 20260507231520 | 59 | 352 | 0.0 | 0.0 | 0.00 | 0.30 | 0.00 | 36 | 1003.9 |
| 20260507230015 | 59 | 18 | 0.0 | 0.0 | 0.00 | 0.30 | 0.00 | 36 | 1003.7 |
| 20260507224512 | 59 | 311 | 0.0 | 0.0 | 0.00 | 0.38 | 0.00 | 36 | 1003.5 |
| 20260507223008 | 60 | 333 | 0.0 | 0.0 | 0.00 | 0.38 | 0.00 | 37 | 1003.3 |
| 20260507221507 | 60 | 328 | 0.0 | 0.0 | 0.00 | 0.38 | 0.00 | 36 | 1003.3 |
| 20260507220058 | 61 | 333 | 0.0 | 0.0 | 0.00 | 0.38 | 0.00 | 35 | 1003.1 |
| 20260507214617 | 61 | 354 | 0.0 | 0.0 | 0.00 | 0.56 | 0.00 | 35 | 1003.1 |
| 20260507213103 | 61 | 307 | 0.0 | 0.0 | 0.00 | 0.56 | 0.00 | 35 | 1003.0 |
| 20260507211558 | 61 | 314 | 0.0 | 0.0 | 0.00 | 0.56 | 0.00 | 35 | 1002.9 |
| 20260507204537 | 61 | 273 | 0.0 | 0.0 | 0.00 | 0.67 | 0.26 | 35 | 1002.7 |
| 20260507203039 | 59 | 236 | 0.0 | 0.0 | 0.00 | 0.67 | 0.26 | 50 | 1002.5 |
| 20260507201529 | 55 | 241 | 0.0 | 0.0 | 0.00 | 0.67 | 0.26 | 71 | 1002.6 |
| 20260507200027 | 54 | 172 | 0.0 | 0.0 | 0.00 | 0.67 | 0.26 | 73 | 1002.7 |
| 20260507194520 | 54 | 218 | 0.0 | 0.0 | 0.00 | 0.70 | 0.26 | 73 | 1002.8 |
| 20260507193016 | 55 | 232 | 0.0 | 0.0 | 0.00 | 0.70 | 0.26 | 71 | 1003.0 |
| 20260507191512 | 57 | 182 | 0.0 | 0.0 | 0.00 | 0.70 | 0.26 | 62 | 1003.0 |
| 20260507190006 | 57 | 214 | 0.0 | 0.0 | 0.00 | 0.70 | 0.26 | 63 | 1003.1 |
| 20260507184503 | 55 | 192 | 0.0 | 0.0 | 0.00 | 0.70 | 0.26 | 68 | 1003.2 |
| 20260507183057 | 56 | 187 | 0.0 | 0.0 | 0.00 | 0.70 | 0.26 | 68 | 1003.4 |
| 20260507181552 | 56 | 203 | 0.0 | 0.0 | 0.00 | 0.70 | 0.26 | 70 | 1003.6 |
| 20260507180051 | 55 | 185 | 0.0 | 0.0 | 0.00 | 0.70 | 0.26 | 70 | 1003.7 |
| 20260507174548 | 55 | 219 | 0.0 | 0.0 | 0.00 | 0.70 | 0.26 | 70 | 1003.7 |
| 20260507173039 | 57 | 219 | 0.0 | 0.0 | 0.00 | 0.70 | 0.26 | 61 | 1003.7 |
| 20260507171540 | 57 | 258 | 0.0 | 0.0 | 0.00 | 0.70 | 0.26 | 63 | 1003.8 |
| 20260507170038 | 56 | 210 | 0.0 | 0.0 | 0.00 | 0.70 | 0.26 | 65 | 1003.9 |
| 20260507164528 | 56 | 186 | 0.0 | 0.0 | 0.00 | 0.70 | 0.26 | 67 | 1004.0 |
| 20260507163023 | 55 | 214 | 0.0 | 0.0 | 0.00 | 0.70 | 0.26 | 71 | 1004.0 |
| 20260507161520 | 56 | 183 | 0.0 | 0.0 | 0.00 | 0.70 | 0.26 | 65 | 1004.2 |
| 20260507160019 | 56 | 176 | 0.0 | 0.0 | 0.00 | 0.70 | 0.26 | 66 | 1004.6 |
| 20260507154521 | 56 | 192 | 0.0 | 0.0 | 0.00 | 0.70 | 0.26 | 69 | 1004.7 |
| 20260507153010 | 57 | 257 | 0.0 | 0.0 | 0.00 | 0.70 | 0.26 | 61 | 1004.8 |
| 20260507151501 | 56 | 267 | 0.0 | 0.0 | 0.00 | 0.70 | 0.26 | 64 | 1005.0 |
| 20260507150059 | 55 | 229 | 0.0 | 0.0 | 0.00 | 0.70 | 0.26 | 68 | 1004.9 |
| 20260507144554 | 54 | 221 | 0.0 | 0.0 | 0.00 | 0.70 | 0.26 | 70 | 1005.2 |
| 20260507143053 | 54 | 255 | 0.0 | 0.0 | 0.00 | 0.70 | 0.26 | 70 | 1005.2 |
| 20260507141544 | 54 | 349 | 0.0 | 0.0 | 0.00 | 0.70 | 0.26 | 69 | 1005.4 |
| 20260507140040 | 53 | 353 | 0.0 | 0.0 | 0.00 | 0.70 | 0.26 | 70 | 1005.5 |
| 20260507134537 | 53 | 3 | 0.0 | 0.0 | 0.00 | 0.70 | 0.26 | 70 | 1005.5 |
| 20260507133033 | 52 | 345 | 0.0 | 0.0 | 0.00 | 0.70 | 0.26 | 71 | 1005.7 |
| 20260507131525 | 52 | 39 | 0.0 | 0.0 | 0.00 | 0.70 | 0.26 | 72 | 1005.7 |
| 20260507130032 | 51 | 14 | 0.0 | 0.0 | 0.00 | 0.70 | 0.26 | 74 | 1006.0 |
| 20260507124521 | 50 | 343 | 0.0 | 0.0 | 0.00 | 0.70 | 0.26 | 74 | 1006.0 |
| 20260507123012 | 50 | 345 | 0.0 | 0.0 | 0.00 | 0.70 | 0.26 | 76 | 1005.9 |
| 20260507121509 | 49 | 15 | 0.0 | 0.0 | 0.00 | 0.70 | 0.26 | 76 | 1006.0 |
| 20260507120008 | 48 | 345 | 0.0 | 0.0 | 0.00 | 0.70 | 0.26 | 73 | 1005.7 |
| 20260507114503 | 48 | 11 | 0.0 | 0.0 | 0.00 | 0.70 | 0.26 | 63 | 1006.0 |
| 20260507113101 | 48 | 1 | 0.0 | 0.0 | 0.00 | 0.70 | 0.26 | 60 | 1006.1 |
| 20260507111556 | 47 | 20 | 0.0 | 0.0 | 0.00 | 0.70 | 0.26 | 59 | 1006.4 |
| 20260507110052 | 47 | 6 | 0.0 | 0.0 | 0.00 | 0.70 | 0.26 | 53 | 1006.3 |
| 20260507104547 | 47 | 354 | 0.0 | 0.0 | 0.00 | 0.70 | 0.26 | 51 | 1006.1 |
| 20260507103042 | 47 | 340 | 0.0 | 0.0 | 0.00 | 0.70 | 0.26 | 45 | 1006.2 |
| 20260507101538 | 0 | 0.0 | 0.0 | 0.00 | 0.70 | 0.26 | 1006.1 | ||
| 20260507100035 | 0 | 0.0 | 0.0 | 0.00 | 0.70 | 0.26 | 1005.2 | ||
| 20260507094529 | 0 | 0.0 | 0.0 | 0.00 | 0.70 | 0.26 | 1005.8 | ||
| 20260507093025 | 0 | 0.0 | 0.0 | 0.00 | 0.70 | 0.26 | 1005.0 | ||
| 20260507091526 | 0 | 0.0 | 0.0 | 0.00 | 0.70 | 0.26 | 1005.6 | ||
| 20260507090020 | 0 | 0.0 | 0.0 | 0.00 | 0.70 | 0.26 | 1005.5 | ||
| 20260507084511 | 0 | 0.0 | 0.0 | 0.00 | 0.70 | 0.26 | 1005.4 | ||
| 20260507083007 | 0 | 0.0 | 0.0 | 0.00 | 0.70 | 0.26 | 1005.2 | ||
| 20260507081503 | 0 | 0.0 | 0.0 | 0.00 | 0.70 | 0.26 | 1005.4 | ||
| 20260507080115 | 0 | 0.0 | 0.0 | 0.00 | 0.70 | 0.26 | 1005.0 | ||
| 20260507074555 | 0 | 0.0 | 0.0 | 0.00 | 0.70 | 0.26 | 1005.1 | ||
| 20260507073050 | 0 | 0.0 | 0.0 | 0.00 | 0.70 | 0.26 | 1004.9 | ||
| 20260507071606 | 0 | 0.0 | 0.0 | 0.00 | 0.70 | 0.26 | 1004.4 | ||
| 20260507070045 | 0 | 0.0 | 0.0 | 0.00 | 0.70 | 0.26 | 1004.3 | ||
| 20260507064541 | 0 | 0.0 | 0.0 | 0.00 | 0.70 | 0.26 | 1004.1 | ||
| 20260507063042 | 0 | 0.0 | 0.0 | 0.00 | 0.70 | 0.26 | 1003.9 | ||
| 20260507061532 | 0 | 0.0 | 0.0 | 0.00 | 0.70 | 0.26 | 1004.3 |